Location: Unspecified
(43.8044°N, 11.0278°E)
Time: 11:05:29
(UTC+01:00)

Cosmos 1674 - Visible Passes

Search period start: 18 January 2017 00:00
Search period end: 28 January 2017 00:00
Orbit: 500 x 523 km, 82.5° (Epoch: 17 January)

Date Brightness Start Highest point End Pass type
(mag) Time Alt. Az. Time Alt. Az. Time Alt. Az.
18 Jan 2.6 17:55:14 10° S 17:59:03 86° E 18:02:54 10° N visible
19 Jan 2.7 17:38:59 10° S 17:42:46 67° E 17:46:36 10° NNE visible
20 Jan 5.9 19:01:01 10° W 19:02:29 12° WNW 19:03:58 10° NW visible
21 Jan 5.7 18:43:55 10° WSW 18:46:06 15° WNW 18:48:18 10° NW visible
22 Jan 5.6 18:27:03 10° WSW 18:29:43 18° WNW 18:32:25 10° NNW visible
23 Jan 5.3 18:10:20 10° SW 18:13:21 22° WNW 18:16:24 10° NNW visible
24 Jan 4.9 17:53:42 10° SW 17:57:00 27° WNW 18:00:20 10° NNW visible
